VIS870 KBOS-KRDU

Flight info

Callsign VIS870
Flight time N/A
Altitude 40000
Route SSOXS7 SSOXS Q167 ZJAAY TAQLE2
Aircraft B748/H-SDE3FGHIM1M2RWXY/LB1

Departure

Time 2026-05-07 00:06
Airport Boston Logan International Airport (KBOS)

Arrival

Time N/A
Airport Raleigh-Durham International Airport (KRDU)
Time Latitude Longitude Altitude Speed Heading
2026-05-06 23:04 42.36835 -71.01610 34 ft 0 kts 107°
2026-05-06 23:39 42.36839 -71.01635 32 ft 5 kts 84°
2026-05-06 23:39 42.36837 -71.01650 31 ft 2 kts 62°
2026-05-06 23:39 42.36834 -71.01657 30 ft 0 kts 49°
2026-05-06 23:40 42.36827 -71.01668 30 ft 1 kts 28°
2026-05-06 23:40 42.36828 -71.01667 31 ft 0 kts 28°
2026-05-06 23:41 42.36829 -71.01666 31 ft 0 kts 29°
2026-05-06 23:41 42.36830 -71.01665 31 ft 0 kts 30°
2026-05-06 23:41 42.36830 -71.01666 31 ft 1 kts 29°
2026-05-06 23:42 42.36826 -71.01669 30 ft 1 kts 19°
2026-05-06 23:42 42.36872 -71.01666 34 ft 0 kts 358°
2026-05-06 23:47 42.36873 -71.01666 34 ft 0 kts 359°
2026-05-06 23:47 42.36883 -71.01663 34 ft 1 kts
2026-05-06 23:47 42.36886 -71.01663 34 ft 0 kts 10°
2026-05-06 23:49 42.36911 -71.01651 35 ft 7 kts 27°
2026-05-06 23:49 42.36949 -71.01618 36 ft 6 kts 34°
2026-05-06 23:50 42.36955 -71.01612 37 ft 0 kts 34°
2026-05-06 23:50 42.36966 -71.01602 37 ft 11 kts 32°
2026-05-06 23:50 42.37035 -71.01555 38 ft 9 kts 34°
2026-05-06 23:51 42.37051 -71.01507 37 ft 4 kts 96°
2026-05-06 23:51 42.37038 -71.01480 34 ft 4 kts 133°
2026-05-06 23:51 42.37001 -71.01432 36 ft 12 kts 137°
2026-05-06 23:51 42.36934 -71.01337 36 ft 11 kts 127°
2026-05-06 23:52 42.36890 -71.01263 34 ft 8 kts 110°
2026-05-06 23:52 42.36888 -71.01250 34 ft 0 kts 98°
2026-05-06 23:56 42.36888 -71.01240 34 ft 8 kts 91°
2026-05-06 23:57 42.36913 -71.01177 34 ft 9 kts 39°
2026-05-06 23:57 42.37031 -71.01081 33 ft 29 kts 28°
2026-05-06 23:57 42.37151 -71.01000 32 ft 0 kts 32°
2026-05-06 23:59 42.37203 -71.00965 33 ft 24 kts 25°
2026-05-06 23:59 42.37364 -71.00874 31 ft 20 kts 19°
2026-05-06 23:59 42.37431 -71.00845 32 ft 9 kts 18°
2026-05-06 23:59 42.37488 -71.00815 33 ft 9 kts 20°
2026-05-07 00:00 42.37545 -71.00786 33 ft 9 kts 19°
2026-05-07 00:00 42.37607 -71.00757 35 ft 10 kts 19°
2026-05-07 00:00 42.37692 -71.00718 38 ft 16 kts 19°
2026-05-07 00:00 42.37763 -71.00685 39 ft 15 kts 18°
2026-05-07 00:01 42.37812 -71.00654 39 ft 1 kts 38°
2026-05-07 00:01 42.37814 -71.00652 39 ft 0 kts 39°
2026-05-07 00:01 42.37827 -71.00634 37 ft 4 kts 51°
2026-05-07 00:02 42.37835 -71.00603 38 ft 3 kts 82°
2026-05-07 00:02 42.37834 -71.00585 38 ft 0 kts 98°
2026-05-07 00:04 42.37834 -71.00583 38 ft 2 kts 98°
2026-05-07 00:04 42.37804 -71.00499 36 ft 6 kts 144°
2026-05-07 00:04 42.37755 -71.00496 36 ft 7 kts 190°
2026-05-07 00:04 42.37724 -71.00506 36 ft 0 kts 195°
2026-05-07 00:06 42.37461 -71.00630 35 ft 96 kts 201°
2026-05-07 00:06 42.36516 -71.01089 318 ft 178 kts 194°
2026-05-07 00:06 42.35282 -71.01656 1621 ft 195 kts 208°
2026-05-07 00:07 42.33930 -71.02195 2811 ft 211 kts 201°
2026-05-07 00:07 42.32473 -71.02577 3875 ft 216 kts 199°
2026-05-07 00:07 42.30955 -71.02832 4986 ft 226 kts 191°
2026-05-07 00:07 42.29349 -71.02634 6088 ft 238 kts 180°
2026-05-07 00:08 42.27726 -71.02315 7209 ft 236 kts 185°
2026-05-07 00:08 42.26071 -71.02033 8267 ft 243 kts 181°
2026-05-07 00:08 42.24403 -71.01338 9237 ft 265 kts 165°
2026-05-07 00:08 42.22630 -71.00630 9871 ft 270 kts 187°
2026-05-07 00:09 42.20906 -70.99837 11241 ft 269 kts 144°
2026-05-07 00:09 42.19589 -70.98172 12565 ft 255 kts 158°
2026-05-07 00:09 42.18076 -70.96825 13256 ft 268 kts 161°
2026-05-07 00:09 42.16391 -70.95748 13781 ft 274 kts 172°
2026-05-07 00:10 42.14536 -70.95092 14153 ft 287 kts 181°
2026-05-07 00:10 42.12509 -70.94104 13935 ft 341 kts 159°
2026-05-07 00:10 42.10315 -70.92881 13994 ft 345 kts 176°
2026-05-07 00:10 42.07915 -70.92692 13970 ft 350 kts 192°
2026-05-07 00:11 42.05423 -70.92880 13877 ft 372 kts 187°
2026-05-07 00:11 42.02765 -70.92597 13722 ft 389 kts 185°